Hourly Weather Roundup
Issued by NWS Central Illinois

Home | Current Version | Previous Version | Text Only | Print | Product List | Glossary On
Versions: 1 2 3 4 5 6 7 8 9 10 11 12 13 14 15 16 17 18 19 20 21 22 23 24 25 26 27 28 29 30 31 32 33 34 35 36 37 38 39 40 41 42 43 44 45 46 47 48 49 50
088
NZUS43 KILX 032010
HWRILX

AREA WEATHER ROUNDUP
NATIONAL WEATHER SERVICE, LINCOLN IL
300 PM CDT TUE MAY 03 2016


CITY           SKY/WX    TMP DP  RH WIND       PRES   REMARKS
BLOOMINGTON    PTSUNNY   64  41  43 NW12      29.93F
CHAMPAIGN      CLOUDY    64  42  44 W10       29.92F
DANVILLE       PTSUNNY   63  38  40 NW5       29.89F
DECATUR        CLOUDY    62  42  47 NW7       29.94F
EFFINGHAM      CLOUDY    64  44  49 W10G16    29.96F
FLORA          CLOUDY    64  42  43 N3        29.96F
GALESBURG      MOSUNNY   66  38  35 NW7       29.92F
JACKSONVILLE   CLOUDY    63  43  47 W10       29.96F
LACON          MOSUNNY   66  36  32 W9        29.90F
LAWRENCEVILLE  CLOUDY    62  42  47 NW8       29.95F
LITCHFIELD     CLOUDY    60  42  51 W8        29.97F
$$


CITY           SKY/WX    TMP DP  RH WIND       PRES   REMARKS
LINCOLN        CLOUDY    65  42  43 W6        29.93F
MACOMB         PTSUNNY   66  40  38 W15       29.97F
MATTOON        PTSUNNY   64  40  41 NW8       29.93F
MT CARMEL AP   CLOUDY    61  41  48 N9        29.95F
OLNEY-NOBLE AP MOSUNNY   61  43  51 NW8       29.96S
PARIS          PTSUNNY   63  42  46 NW6       29.93F
PEORIA         SUNNY     68  37  32 W9        29.92F
PONTIAC        CLOUDY    67  43  42 W17       29.90F
RANTOUL        PTSUNNY   65  41  40 W7        29.91F
ROBINSON       CLOUDY    59  45  59 N6        29.95F
SPRINGFIELD    CLOUDY    64  40  41 W6        29.96F
TAYLORVILLE    CLOUDY    62  43  50 SE9       29.96F
$$

...REGIONAL REPORTS...


CITY           SKY/WX    TMP DP  RH WIND       PRES   REMARKS
CHICAGO O`HARE PTSUNNY   65  38  36 W13       29.84F
KANKAKEE       CLOUDY   N/A N/A N/A W9        29.89S
MOLINE         PTSUNNY   70  38  31 W15G23    29.89F
MOUNT STERLING MOSUNNY   65  41  41 NW12      29.96F
MOUNT VERNON   CLOUDY    63  41  45 N5        29.98F
PITTSFIELD     MOSUNNY   65  40  39 W6        29.99F
QUINCY         SUNNY     66  39  37 W7        29.97F
ROCKFORD       PTSUNNY   66  39  37 W12       29.86F
$$


CITY           SKY/WX    TMP DP  RH WIND       PRES   REMARKS
BURLINGTON     MOSUNNY   66  41  40 W12       29.93F
CEDAR RAPIDS   PTSUNNY   64  42  44 W20G26    29.89F
DES MOINES     PTSUNNY   68  37  32 W17G25    29.94F
KIRKSVILLE     PTSUNNY   65  39  38 W10       29.98F
OTTUMWA        PTSUNNY   68  42  38 W14       29.94F
ST LOUIS       PTSUNNY   64  41  42 NW12      29.99F
$$


CITY           SKY/WX    TMP DP  RH WIND       PRES   REMARKS
TERRE HAUTE    MOSUNNY   63  38  39 N6        29.92F
EVANSVILLE     CLOUDY    61  44  53 NW8       29.96F
INDIANAPOLIS   PTSUNNY   59  46  62 CALM      29.90F
LAFAYETTE      MOSUNNY   64  40  41 NW7       29.89F
MADISON        CLOUDY    65  34  31 SW9       29.79F
MILWAUKEE      PTSUNNY   67  31  26 W15G22    29.80F
$$






USA.gov is the U.S. government's official web portal to all federal, state and local government web resources and services.